User: anonymous   Login
Location: Muenchen
(48.1800°N, 11.5800°E)
Time: 06:57:38
(UTC+01:00)
Language:

Cosmos 2233 Rocket - Orbit

View from above orbital plane
View from above orbital plane
View from above satellite
View from above satellite

Ground track
Ground track

The orbit data is extracted from the following two-line orbital elements,

1 22488U 93008B   16044.18930534  .00000110  00000-0  94779-4 0  9994
2 22488  82.9404  83.0790 0026051 155.5063 236.3652 13.77687970156799
Epoch (UTC): 13 February 2016 04:32:35
Eccentricity: 0.0026051
inclination: 82.9404°
perigee height: 953 km
apogee height: 991 km
right ascension of ascending node: 83.0790°
argument of perigee: 155.5063°
revolutions per day: 13.77687970
mean anomaly at epoch: 236.3652°
orbit number at epoch: 15679

The dashed part of the orbit path shows where the satellite is in the earth's shadow,  

DLR